When you browse on this site, cookies collect data to enhance your experience and personalize the content and advertising you see.
Visit our Privacy Policy to learn more. By continuing to use the site, you agree to this use of cookies and data.
  • In Hungary
  • List of Countries
  • For 7 days
  • Water Temperature
  • Weather Map
  • News
  • Weather Widgets
  • user-avatar
    Login

    Hourly Weather Egore

    Today, 24 February, Monday

    Time Temperature Precipitation Wind Pressure Humidity
    00:00 -1°C° 0 mm 5 mps 725 mmHg 87%
    01:00 -1°C° 0 mm 5 mps 725 mmHg 87%
    02:00 -1°C° 0 mm 5 mps 725 mmHg 86%
    03:00 -1°C° 0 mm 4 mps 725 mmHg 88%
    04:00 -1°C° 0 mm 4 mps 725 mmHg 89%
    05:00 -1°C° 0 mm 3 mps 724 mmHg 91%
    06:00 -1°C° 0 mm 3 mps 725 mmHg 90%
    07:00 -1°C° 0 mm 3 mps 725 mmHg 89%
    08:00 -1°C° 0 mm 3 mps 725 mmHg 88%
    09:00 0°C° 0 mm 3 mps 726 mmHg 86%
    10:00 0°C° 0 mm 3 mps 726 mmHg 84%
    11:00 0°C° 0 mm 3 mps 726 mmHg 82%
    12:00 +1°C° 0.1 mm 3 mps 726 mmHg 81%
    13:00 +1°C° 0.1 mm 3 mps 727 mmHg 80%
    14:00 0°C° 0.1 mm 4 mps 727 mmHg 79%
    15:00 +1°C° 0.1 mm 3 mps 727 mmHg 78%
    16:00 0°C° 0.1 mm 3 mps 728 mmHg 76%
    17:00 0°C° 0.1 mm 3 mps 728 mmHg 75%
    18:00 -1°C° 0 mm 3 mps 729 mmHg 75%
    19:00 -1°C° 0 mm 3 mps 730 mmHg 74%
    20:00 -2°C° 0 mm 3 mps 730 mmHg 74%
    21:00 -2°C° 0 mm 3 mps 730 mmHg 74%
    22:00 -2°C° 0 mm 3 mps 731 mmHg 75%
    23:00 -2°C° 0 mm 3 mps 731 mmHg 75%

    Tomorrow, 25 February, Tuesday

    Time Temperature Precipitation Wind Pressure Humidity
    00:00 -2°C° 0 mm 3 mps 731 mmHg 76%
    01:00 -3°C° 0 mm 4 mps 732 mmHg 77%
    02:00 -3°C° 0 mm 4 mps 732 mmHg 78%
    03:00 -4°C° 0 mm 3 mps 732 mmHg 79%
    04:00 -4°C° 0 mm 3 mps 732 mmHg 80%
    05:00 -4°C° 0 mm 3 mps 732 mmHg 81%
    06:00 -4°C° 0 mm 3 mps 732 mmHg 80%
    07:00 -4°C° 0 mm 3 mps 732 mmHg 79%
    08:00 -4°C° 0 mm 3 mps 732 mmHg 78%
    09:00 -2°C° 0 mm 3 mps 732 mmHg 71%
    10:00 -1°C° 0 mm 3 mps 732 mmHg 64%
    11:00 0°C° 0 mm 3 mps 732 mmHg 58%
    12:00 +1°C° 0 mm 3 mps 732 mmHg 55%
    13:00 +1°C° 0 mm 3 mps 732 mmHg 52%
    14:00 +1°C° 0 mm 3 mps 732 mmHg 49%
    15:00 0°C° 0 mm 3 mps 731 mmHg 55%
    16:00 +1°C° 0 mm 2 mps 731 mmHg 60%
    17:00 -1°C° 0 mm 2 mps 731 mmHg 66%
    18:00 -2°C° 0 mm 2 mps 730 mmHg 67%
    19:00 -2°C° 0 mm 2 mps 730 mmHg 68%
    20:00 -2°C° 0 mm 3 mps 730 mmHg 69%
    21:00 -2°C° 0 mm 3 mps 729 mmHg 71%
    22:00 -2°C° 0 mm 3 mps 729 mmHg 73%
    23:00 -2°C° 0 mm 4 mps 728 mmHg 75%

    Day after tomorrow, 26 February, Wednesday

    Time Temperature Precipitation Wind Pressure Humidity
    00:00 -2°C° 0.2 mm 4 mps 727 mmHg 82%
    01:00 -2°C° 0.2 mm 4 mps 726 mmHg 88%
    02:00 -2°C° 0.2 mm 4 mps 726 mmHg 95%
    03:00 -2°C° 0.2 mm 5 mps 725 mmHg 95%
    04:00 -1°C° 0.2 mm 5 mps 724 mmHg 94%
    05:00 0°C° 0.2 mm 5 mps 724 mmHg 94%
    06:00 0°C° 0.1 mm 4 mps 723 mmHg 95%
    07:00 +1°C° 0.1 mm 3 mps 723 mmHg 95%
    08:00 +2°C° 0.1 mm 2 mps 723 mmHg 95%
    09:00 +2°C° 0.6 mm 2 mps 723 mmHg 95%
    10:00 +2°C° 0.6 mm 2 mps 723 mmHg 96%
    11:00 +1°C° 0.6 mm 3 mps 723 mmHg 96%
    12:00 +2°C° 0.1 mm 2 mps 723 mmHg 93%
    13:00 +2°C° 0.1 mm 2 mps 723 mmHg 91%
    14:00 +2°C° 0.1 mm 2 mps 724 mmHg 89%
    15:00 +2°C° 0 mm 2 mps 724 mmHg 89%
    16:00 +1°C° 0 mm 2 mps 724 mmHg 89%
    17:00 +1°C° 0 mm 2 mps 724 mmHg 90%
    18:00 -1°C° 0 mm 2 mps 724 mmHg 91%
    19:00 -1°C° 0 mm 2 mps 725 mmHg 92%
    20:00 -1°C° 0 mm 2 mps 725 mmHg 92%
    21:00 -1°C° 0 mm 2 mps 725 mmHg 93%
    22:00 -1°C° 0 mm 2 mps 725 mmHg 94%
    23:00 -1°C° 0 mm 2 mps 725 mmHg 95%

    27 February, Thursday

    Time Temperature Precipitation Wind Pressure Humidity
    00:00 -1°C° 0 mm 2 mps 725 mmHg 95%
    01:00 -1°C° 0 mm 2 mps 725 mmHg 95%
    02:00 -1°C° 0 mm 2 mps 725 mmHg 95%
    03:00 -1°C° 0 mm 2 mps 724 mmHg 96%
    04:00 +1°C° 0 mm 1 mps 724 mmHg 96%
    05:00 +1°C° 0 mm 1 mps 724 mmHg 97%
    06:00 +1°C° 0 mm 1 mps 724 mmHg 96%
    07:00 +1°C° 0 mm 1 mps 724 mmHg 95%
    08:00 +1°C° 0 mm 1 mps 724 mmHg 94%
    09:00 +2°C° 0 mm 1 mps 724 mmHg 91%
    10:00 +3°C° 0 mm 1 mps 724 mmHg 88%
    11:00 +4°C° 0 mm 1 mps 724 mmHg 85%
    12:00 +4°C° 0.1 mm 1 mps 724 mmHg 87%
    13:00 +3°C° 0.1 mm 1 mps 724 mmHg 88%
    14:00 +3°C° 0.1 mm 1 mps 724 mmHg 90%
    15:00 +3°C° 0 mm 1 mps 724 mmHg 92%
    16:00 +2°C° 0 mm 1 mps 724 mmHg 95%
    17:00 +2°C° 0 mm 1 mps 724 mmHg 97%
    18:00 +2°C° 0 mm 1 mps 724 mmHg 96%
    19:00 +1°C° 0 mm 2 mps 724 mmHg 95%
    20:00 -1°C° 0 mm 2 mps 725 mmHg 93%
    21:00 -1°C° 0.7 mm 2 mps 725 mmHg 93%
    22:00 -1°C° 0.7 mm 3 mps 725 mmHg 93%
    23:00 -3°C° 0.7 mm 4 mps 725 mmHg 93%

    28 February, Friday

    Time Temperature Precipitation Wind Pressure Humidity
    00:00 -4°C° 0 mm 3 mps 725 mmHg 92%
    01:00 -4°C° 0 mm 3 mps 725 mmHg 92%
    02:00 -5°C° 0 mm 3 mps 726 mmHg 91%
    03:00 -4°C° 0 mm 2 mps 726 mmHg 90%
    04:00 -5°C° 0 mm 2 mps 726 mmHg 89%
    05:00 -3°C° 0 mm 1 mps 726 mmHg 89%
    06:00 -3°C° 0 mm 1 mps 726 mmHg 87%
    07:00 -3°C° 0 mm 1 mps 726 mmHg 85%
    08:00 -4°C° 0 mm 2 mps 726 mmHg 83%
    09:00 -4°C° 0 mm 2 mps 726 mmHg 77%
    10:00 -3°C° 0 mm 2 mps 726 mmHg 72%
    11:00 -2°C° 0 mm 2 mps 726 mmHg 66%
    12:00 -2°C° 0 mm 2 mps 726 mmHg 63%
    13:00 -2°C° 0 mm 2 mps 726 mmHg 60%
    14:00 -1°C° 0 mm 2 mps 726 mmHg 58%
    15:00 -2°C° 0 mm 2 mps 725 mmHg 61%
    16:00 -2°C° 0 mm 2 mps 725 mmHg 64%
    17:00 -3°C° 0 mm 2 mps 725 mmHg 68%
    18:00 -4°C° 0 mm 3 mps 725 mmHg 70%
    19:00 -4°C° 0 mm 3 mps 725 mmHg 72%
    20:00 -5°C° 0 mm 3 mps 725 mmHg 74%
    21:00 -5°C° 0 mm 3 mps 725 mmHg 74%
    22:00 -5°C° 0 mm 4 mps 725 mmHg 74%
    23:00 -5°C° 0 mm 4 mps 724 mmHg 75%

    29 February, Saturday

    Time Temperature Precipitation Wind Pressure Humidity
    00:00 -5°C° 0 mm 4 mps 724 mmHg 76%
    01:00 -5°C° 0 mm 4 mps 724 mmHg 78%
    02:00 -6°C° 0 mm 5 mps 724 mmHg 79%
    03:00 -7°C° 0.1 mm 5 mps 724 mmHg 82%
    04:00 -7°C° 0.1 mm 5 mps 724 mmHg 86%
    05:00 -8°C° 0.1 mm 6 mps 724 mmHg 89%
    06:00 -7°C° 0.3 mm 5 mps 724 mmHg 88%
    07:00 -7°C° 0.3 mm 5 mps 724 mmHg 88%
    08:00 -7°C° 0.3 mm 5 mps 724 mmHg 88%
    09:00 -7°C° 0.2 mm 5 mps 725 mmHg 85%
    10:00 -7°C° 0.2 mm 5 mps 725 mmHg 82%
    11:00 -6°C° 0.2 mm 5 mps 725 mmHg 80%
    12:00 -6°C° 0.2 mm 5 mps 726 mmHg 80%
    13:00 -6°C° 0.2 mm 5 mps 726 mmHg 81%
    14:00 -6°C° 0.2 mm 5 mps 726 mmHg 81%
    15:00 -6°C° 0.1 mm 5 mps 727 mmHg 78%
    16:00 -5°C° 0.1 mm 4 mps 727 mmHg 75%
    17:00 -5°C° 0.1 mm 4 mps 728 mmHg 72%
    18:00 -7°C° 0 mm 4 mps 728 mmHg 74%
    19:00 -6°C° 0 mm 3 mps 729 mmHg 76%
    20:00 -6°C° 0 mm 3 mps 729 mmHg 78%
    21:00 -6°C° 0 mm 3 mps 730 mmHg 80%
    22:00 -7°C° 0 mm 3 mps 730 mmHg 82%
    23:00 -7°C° 0 mm 3 mps 730 mmHg 84%
    Show more